Weather History for Pensacola NAS, FL

Change the Weather History Date:

Sunday, April 7, 2013

  Actual Average Record
Temperature  
Mean Temperature 60 °F -  
Max Temperature 73 °F 72 °F 79 °F (2003)
Min Temperature 48 °F 56 °F 42 °F (2007)
Degree Days  
Heating Degree Days 5    
Growing Degree Days 10 (Base 50)    
Moisture  
Dew Point 60 °F    
Average Humidity 86    
Maximum Humidity 96    
Minimum Humidity 70    
Precipitation  
Precipitation 0.00 in - - ()
Sea Level Pressure  
Sea Level Pressure 30.09 in    
Wind  
Wind Speed 6 mph (ESE)    
Max Wind Speed 14 mph    
Max Gust Speed -    
Visibility 10 miles    
Events Rain    
Averages and records for this station are not official NWS values.
T = Trace of Precipitation, MM = Missing Value Source: NWS Daily Summary

Daily Weather History Graph

Daily Weather History Graph

Search for Another Location

Airport:

Trip Planner

Search our weather history database for the weather conditions in past years. The results will help you decide how hot, cold, wet, or windy it might be!

Date:

Astronomy

Apr. 07, 2013 Rise Set
Actual Time 6:30 AM CDT 7:12 PM CDT
Civil Twilight 6:06 AM CDT 7:36 PM CDT
Nautical Twilight 5:38 AM CDT 8:05 PM CDT
Astronomical Twilight 5:08 AM CDT 8:34 PM CDT
Moon 4:37 AM CDT (4/7) 4:52 PM CDT (4/7)
Length of Visible Light 13h 29m
Length of Day
12h 41m
Waning Crescent, 8% of the Moon is Illuminated
Apr 7
Waning Crescent
Apr 10
New
Apr 18
First Quarter
Apr 25
Full
May 2
Last Quarter

Hourly Weather History & Observations

Time (CDT) Temp. Dew Point Humidity Pressure Visibility Wind Dir Wind Speed Gust Speed Precip Events Conditions
12:56 AM 50.0 °F 48.9 °F 96% 30.10 in 10.0 mi Calm Calm - 0.00 in   Clear
1:56 AM 50.0 °F 48.0 °F 93% 30.09 in 10.0 mi Calm Calm - N/A   Clear
2:56 AM 48.9 °F 46.9 °F 93% 30.07 in 10.0 mi Calm Calm - 0.00 in   Clear
3:56 AM 48.9 °F 46.9 °F 93% 30.07 in 10.0 mi Calm Calm - 0.00 in Rain Light Rain
4:56 AM 50.0 °F 48.9 °F 96% 30.08 in 10.0 mi NE 3.5 mph - 0.00 in   Clear
5:56 AM 53.1 °F 52.0 °F 96% 30.10 in 10.0 mi NNE 4.6 mph - 0.00 in   Clear
6:56 AM 55.9 °F 54.0 °F 93% 30.11 in 10.0 mi NE 4.6 mph - N/A   Clear
7:56 AM 62.1 °F 57.9 °F 86% 30.12 in 10.0 mi East 8.1 mph - N/A   Scattered Clouds
8:56 AM 66.0 °F 59.0 °F 78% 30.13 in 10.0 mi ESE 11.5 mph - N/A   Partly Cloudy
9:56 AM 69.1 °F 61.0 °F 75% 30.15 in 10.0 mi ESE 9.2 mph - N/A   Mostly Cloudy
10:39 AM 69.8 °F 60.8 °F 73% 30.15 in 10.0 mi SE 10.4 mph - N/A   Mostly Cloudy
10:56 AM 71.1 °F 61.0 °F 70% 30.16 in 10.0 mi SE 10.4 mph - N/A   Mostly Cloudy
11:35 AM 71.6 °F 62.6 °F 73% 30.15 in 10.0 mi ESE 11.5 mph - N/A   Mostly Cloudy
11:52 AM 71.6 °F 62.6 °F 73% 30.14 in 10.0 mi ESE 12.7 mph - N/A   Mostly Cloudy
11:56 AM 71.1 °F 63.0 °F 75% 30.15 in 10.0 mi ESE 12.7 mph - N/A   Mostly Cloudy
12:56 PM 70.0 °F 63.0 °F 78% 30.13 in 10.0 mi ESE 11.5 mph - N/A   Mostly Cloudy
1:41 PM 71.6 °F 64.4 °F 78% 30.11 in 10.0 mi ESE 11.5 mph - N/A   Mostly Cloudy
1:56 PM 71.1 °F 63.0 °F 75% 30.12 in 10.0 mi ESE 11.5 mph - N/A   Mostly Cloudy
2:56 PM 72.0 °F 63.0 °F 73% 30.09 in 10.0 mi ESE 13.8 mph - N/A   Mostly Cloudy
3:56 PM 72.0 °F 64.0 °F 76% 30.08 in 10.0 mi SE 12.7 mph - N/A   Mostly Cloudy
4:56 PM 68.0 °F 63.0 °F 84% 30.07 in 10.0 mi ESE 12.7 mph - N/A   Mostly Cloudy
5:56 PM 69.1 °F 63.0 °F 81% 30.07 in 10.0 mi ESE 6.9 mph - N/A   Mostly Cloudy
6:48 PM 66.2 °F 64.4 °F 94% 30.06 in 10.0 mi ESE 6.9 mph - N/A   Mostly Cloudy
6:56 PM 66.9 °F 64.0 °F 90% 30.06 in 10.0 mi East 9.2 mph - N/A   Mostly Cloudy
7:56 PM 66.0 °F 64.0 °F 93% 30.07 in 10.0 mi ESE 9.2 mph - N/A   Mostly Cloudy
8:30 PM 66.2 °F 64.4 °F 94% 30.07 in 10.0 mi ESE 8.1 mph - N/A   Mostly Cloudy
8:56 PM 66.0 °F 64.9 °F 96% 30.07 in 10.0 mi ESE 8.1 mph - N/A   Partly Cloudy
9:56 PM 66.0 °F 64.9 °F 96% 30.06 in 10.0 mi ESE 8.1 mph - N/A   Partly Cloudy
10:51 PM 66.2 °F 64.4 °F 94% 30.05 in 9.0 mi SE 8.1 mph - N/A   Mostly Cloudy
10:56 PM 66.0 °F 64.9 °F 96% 30.06 in 9.0 mi SE 8.1 mph - N/A   Mostly Cloudy
11:12 PM 66.2 °F 64.4 °F 94% 30.04 in 9.0 mi SE 8.1 mph - N/A   Scattered Clouds
11:56 PM 66.0 °F 64.9 °F 96% 30.04 in 9.0 mi SE 6.9 mph - N/A   Clear